Starlink 2657

operational
NORAD ID: 48655 Int'l Des: 2021-044 Owner: SPXS Country: US Constellation: starlink
LEOCIRCULARSTARLINK_TYPE

Über Starlink 2657

Beschreibung wird geladen...

Live-Position

3D-Globus wird geladen...

Nächste Überflüge

Höhenverlauf

Altitude vs Time

uPlot chart will show altitude changes over time

Zweizeiliger Elementsatz

1 48655U 21044T 25351.66744927 .00000999 00000-0 85907-4 0 9990
2 48655 53.0553 129.8289 0001598 87.2722 272.8450 15.06407892251346
Epoch: 17. Dez. 2025 • Age: 19 hours

Aktueller Status

Höhe 548.3 km
Geschwindigkeit 7.59 km/s
Subsatellitenpunkt 30.77°N, 104.19°W
Startdatum 26. Mai 2021
Alter 4.5 years
Typ internet

Technische Details

Klassifizierung Payload
Masse 260.00 kg
Trockenmasse 248.00 kg
Gesamtmasse 260.00 kg
Länge 0.20 m
Durchmesser 2.80 m
Spannweite 9.00 m
Form Box + pan
Hersteller SPXS
Bus-Typ Starlink
Phasenstatus In Orbit
Besitzer/Staat SPXS/US

Große Konstellationen

Loading constellations...